Location: Bruderhein
(53.8035°N, 112.9265°W)
Time: 02:43:48
(UTC+00:00)

KKS-1 - Pass Details

Date: 10 April 2023
Orbit: 633 x 644 km, 98.2° (Epoch: 31 May)

Event Time Altitude Azimuth Distance (km) Brightness Sun altitude
Rises 07:54:22 0° 5° (N) 2,946 ? -28.1°
Reaches altitude 10° 07:57:08 10° 348° (NNW) 2,033 ? -28.1°
Maximum altitude 08:00:08 18° 305° (NW) 1,554 ? -28.0°
Enters shadow 08:00:50 18° 292° (WNW) 1,584 ? -28.0°
